[[{"header":{"parameterUnit":"m.s-1","parameterCategory":1,"la1":30.2991,"la2":30.254,"lo1":-89.0895,"lo2":-89.0444,"dy":0.0017,"dx":0.0017,"nx":28,"ny":28,"refTime":"2025-03-09T21:00:00:Z","depth":0,"parameterNumber":2,"parameterNumberName":"U-component_of_WINDS"},"data":[0,0,0,0,0,0,0,0,0,0,0,0,0,0,0,0,0,0,0,0,0,0,0,0,0,0,0,0,0,0,0,0,0,0,0,0,0,0,0,0,0,0,0,0,0,0,0,0,0,0,0,0,0,0,0,0,0,0,2.3521,2.3522,0,2.3601,2.3602,2.3603,2.3577,2.3575,2.3573,2.3572,2.3654,2.3657,2.3661,0,0,0,0,0,0,0,0,0,0,0,0,0,2.3346,2.335,2.3521,2.3522,2.3523,2.3601,2.3602,2.3603,2.3577,2.3575,2.3573,2.3571,2.3652,2.3657,2.3661,0,0,0,0,0,0,0,0,0,0,0,0,0,2.3424,2.3351,2.3521,2.3519,2.352,2.36,2.3602,2.3603,2.3578,2.3575,2.3572,2.357,2.3651,2.3656,2.3662,2.3749,0,0,2.3679,2.3682,0,0,0,0,0,0,0,0,2.3419,2.343,2.3518,2.3519,2.352,2.3576,2.357,2.3652,2.3578,2.3556,2.3572,2.3569,2.363,2.3637,2.3658,2.3752,2.3756,2.368,2.3683,2.3686,2.3687,0,0,0,0,0,0,0,2.3414,2.3427,2.3552,2.352,2.3521,2.3515,2.3523,2.3586,2.3606,2.3557,2.3556,2.3566,2.363,2.3652,2.366,2.3757,2.368,2.3685,2.3688,2.369,2.3929,2.3931,0,0,0,0,0,0,2.3408,2.3422,2.355,2.3555,2.3463,2.352,2.3529,2.3561,2.3606,2.361,2.3568,2.3564,2.3644,2.3653,2.3662,2.3768,2.3686,2.3691,2.3694,2.3926,2.3929,2.3932,0,0,0,0,0,0,2.3404,2.342,2.3547,2.3488,2.3504,2.3526,2.3562,2.3564,2.3586,2.3613,2.3617,2.3587,2.3642,2.3654,2.3728,2.377,2.3694,2.3699,2.3922,2.3927,2.3931,2.3979,0,0,0,0,0,0,2.3399,2.3418,2.3451,2.3489,2.3507,2.3611,2.3564,2.3567,2.3596,2.3592,2.3632,2.3636,2.3641,2.3719,2.3733,2.3777,2.3703,2.3919,2.3924,2.3929,2.3974,2.3984,2.3993,0,0,0,0,0,2.3393,2.3461,2.3453,2.3469,2.3549,2.3613,2.3623,2.3628,2.36,2.3633,2.3651,2.3635,2.3763,2.3727,2.3743,2.3788,2.3916,2.3923,2.3929,2.3969,2.3982,2.3993,0,0,0,0,0,0,2.3427,2.3466,2.3457,2.354,2.3573,2.3608,2.3651,2.3641,2.3683,2.3678,2.3681,2.3691,2.3766,2.3784,2.3744,2.3875,2.3836,2.3846,2.3861,2.3873,2.3883,2.3877,2.3708,0,0,0,0,0,2.3444,2.3493,2.3525,2.3594,2.3611,2.3628,2.3656,2.3657,2.3692,2.3706,2.3729,2.3764,2.3812,2.3844,2.3889,2.3976,2.3985,2.4015,2.4025,2.4033,2.4042,2.4091,2.4105,2.3954,2.3954,2.3954,0,0,2.348,2.3507,2.3538,2.3602,2.3628,2.3679,2.364,2.3696,2.3734,2.3714,2.3785,2.3804,2.3843,2.3924,2.396,2.3941,2.4086,2.4042,2.4048,2.4052,2.4099,2.4113,2.4126,2.3959,2.3958,2.3957,0,0,2.3571,2.3597,2.3658,2.3685,2.3726,2.3737,2.3752,2.3789,2.38,2.3872,2.3859,2.3904,2.3987,2.4016,2.4041,2.4145,2.4133,2.416,2.4212,2.426,2.4272,2.4282,2.432,2.4334,2.4169,2.4169,2.4169,0,2.3611,2.3687,2.369,2.3748,2.3777,2.3762,2.3825,2.3851,2.3904,2.3925,2.3902,2.4007,2.4032,2.412,2.4146,2.4167,2.4184,2.4156,2.427,2.428,2.429,2.4327,2.4341,2.4172,2.4172,2.4171,2.4171,0,2.3734,2.3787,2.3832,2.3884,2.3918,2.3978,2.3991,2.4025,2.4023,2.4037,2.411,2.414,2.4192,2.4213,2.4211,2.4302,2.4289,2.4268,2.4228,2.4308,2.4342,2.4356,2.4176,2.4175,2.4174,2.4174,0,0,2.3848,2.3903,2.3919,2.3944,2.3988,2.4029,2.4089,2.414,2.417,2.4207,2.4258,2.4329,2.4311,2.434,2.4341,2.4383,2.4465,2.4357,2.4358,2.4377,2.4568,2.4583,2.4599,2.4457,2.446,2.4462,2.4565,0,2.3944,2.4048,2.4054,2.4149,2.4199,2.4186,2.4238,2.4271,2.4286,2.4331,2.4347,2.4398,2.4369,2.4387,2.4428,2.4446,2.4503,2.4439,2.4505,2.4507,2.4496,2.4617,2.4634,2.4729,2.4578,2.458,2.4582,0,2.4069,2.4111,2.4212,2.425,2.4271,2.4318,2.4366,2.4409,2.4447,2.4455,2.4488,2.4484,2.4546,2.4504,2.4589,2.4546,2.4573,2.4586,2.459,2.4597,2.4549,2.4628,2.476,2.4774,2.4603,2.4601,2.46,0,2.4144,2.4226,2.4296,2.4318,2.4364,2.4397,2.4418,2.4453,2.4485,2.4527,2.4547,2.4596,2.4623,2.4662,2.4671,2.464,2.4758,2.4716,2.4766,2.4766,2.4792,2.479,2.4931,2.4809,2.4808,2.4808,2.4808,0,2.425,2.4312,2.4331,2.4374,2.4444,2.445,2.4519,2.4538,2.457,2.4617,2.4609,2.4654,2.4664,2.4711,2.4719,2.479,2.4801,2.481,2.4812,2.4811,2.481,2.4829,2.4823,2.4812,2.4811,2.481,2.481,0,2.4345,2.436,2.4437,2.4475,2.4486,2.4536,2.4568,2.4611,2.4625,2.4685,2.47,2.4722,2.4777,2.4791,2.4856,2.4862,2.4946,2.494,2.4933,2.4933,2.4983,2.4978,2.5141,2.5163,2.5026,2.5027,2.5028,0,2.4412,2.446,2.4504,2.4535,2.4558,2.4608,2.464,2.4649,2.4683,2.473,2.4767,2.4821,2.4865,2.4954,2.4977,2.5027,2.5023,2.5077,2.5031,2.503,2.5025,2.5023,2.5028,2.5086,2.5087,2.5088,2.5089,0,2.453,2.4536,2.4582,2.4632,2.4671,2.471,2.4748,2.4774,2.4788,2.4826,2.4883,2.4917,2.4985,2.5039,2.5091,2.5112,2.5104,2.5104,2.5118,2.5119,2.5113,2.5118,2.4958,2.51,2.5099,2.5098,2.5098,2.5097,2.4614,2.4656,2.4694,2.4747,2.4776,2.4812,2.4854,2.4874,2.4921,2.4977,2.4979,2.5041,2.5079,2.5147,2.5172,2.5221,2.5205,2.5226,2.5231,2.5236,2.5241,2.5105,2.523,2.523,2.523,2.523,2.5229,0,2.4733,2.4757,2.4805,2.4859,2.49,2.4889,2.493,2.4966,2.5021,2.5057,2.51,2.5166,2.5219,2.5246,2.5299,2.5333,2.5331,2.5347,2.5345,2.535,2.5252,2.5235,2.5348,2.5348,2.5348,2.5348,2.5348,2.5348,2.4799,2.4871,2.4881,2.4967,2.4991,2.5051,2.5076,2.511,2.5139,2.5213,2.5257,2.5274,2.5307,2.5363,2.5411,2.5418,2.5438,2.5457,2.5461,2.5369,2.5357,2.5346,2.5329,2.5461,2.5461,2.5556,2.5557,2.5557]},{"header":{"parameterUnit":"m.s-1","parameterCategory":1,"la1":30.2991,"la2":30.254,"lo1":-89.0895,"lo2":-89.0444,"dy":0.0017,"dx":0.0017,"nx":28,"ny":28,"refTime":"2025-03-09T21:00:00:Z","depth":0,"parameterNumber":3,"parameterNumberName":"V-component_of_WINDS"},"data":[0,0,0,0,0,0,0,0,0,0,0,0,0,0,0,0,0,0,0,0,0,0,0,0,0,0,0,0,0,0,0,0,0,0,0,0,0,0,0,0,0,0,0,0,0,0,0,0,0,0,0,0,0,0,0,0,0,0,-1.7711,-1.7712,0,-1.7758,-1.7759,-1.7759,-1.7749,-1.7748,-1.7747,-1.7746,-1.7793,-1.7795,-1.7797,0,0,0,0,0,0,0,0,0,0,0,0,0,-1.7611,-1.7613,-1.7711,-1.7712,-1.7712,-1.7758,-1.7759,-1.7759,-1.7749,-1.7748,-1.7747,-1.7746,-1.7793,-1.7795,-1.7798,0,0,0,0,0,0,0,0,0,0,0,0,0,-1.7656,-1.7614,-1.7711,-1.7712,-1.7713,-1.7758,-1.7759,-1.776,-1.7749,-1.7748,-1.7746,-1.7745,-1.7792,-1.7795,-1.7798,-1.7844,0,0,-1.7807,-1.7809,0,0,0,0,0,0,0,0,-1.7654,-1.766,-1.7712,-1.7712,-1.7713,-1.7746,-1.7741,-1.7788,-1.7749,-1.7735,-1.7746,-1.7744,-1.7779,-1.7783,-1.7794,-1.7846,-1.7848,-1.7808,-1.781,-1.7811,-1.7812,0,0,0,0,0,0,0,-1.765,-1.7658,-1.773,-1.7712,-1.7713,-1.7711,-1.7716,-1.775,-1.7764,-1.7736,-1.7736,-1.7742,-1.7779,-1.7792,-1.7796,-1.7849,-1.7808,-1.781,-1.7812,-1.7814,-1.7942,-1.7943,0,0,0,0,0,0,-1.7647,-1.7655,-1.7728,-1.7731,-1.768,-1.7714,-1.7719,-1.7737,-1.7763,-1.7766,-1.7743,-1.7741,-1.7787,-1.7792,-1.7797,-1.7853,-1.7811,-1.7814,-1.7816,-1.794,-1.7942,-1.7944,0,0,0,0,0,0,-1.7645,-1.7653,-1.7726,-1.7693,-1.7702,-1.7717,-1.7737,-1.7739,-1.7751,-1.7768,-1.7771,-1.7753,-1.7786,-1.7793,-1.7833,-1.7855,-1.7815,-1.7818,-1.7938,-1.7941,-1.7943,-1.7966,0,0,0,0,0,0,-1.7642,-1.7653,-1.767,-1.7694,-1.7704,-1.7761,-1.7738,-1.774,-1.7757,-1.7755,-1.7779,-1.7781,-1.7785,-1.7828,-1.7836,-1.7858,-1.7821,-1.7936,-1.7939,-1.7942,-1.7963,-1.7968,-1.7973,0,0,0,0,0,-1.7638,-1.7675,-1.7671,-1.768,-1.7726,-1.7762,-1.7768,-1.7773,-1.7759,-1.7777,-1.7788,-1.778,-1.7851,-1.7832,-1.7841,-1.7865,-1.7935,-1.7938,-1.7942,-1.7961,-1.7967,-1.7973,0,0,0,0,0,0,-1.7653,-1.7678,-1.7674,-1.7719,-1.7739,-1.7761,-1.7783,-1.778,-1.7803,-1.7801,-1.7805,-1.781,-1.7851,-1.7862,-1.784,-1.7911,-1.7891,-1.7896,-1.7902,-1.7909,-1.7914,-1.791,-1.7823,0,0,0,0,0,-1.7662,-1.7689,-1.7709,-1.7747,-1.7757,-1.7769,-1.7784,-1.7786,-1.7807,-1.7815,-1.7828,-1.7848,-1.7875,-1.7893,-1.7918,-1.7965,-1.797,-1.7985,-1.799,-1.7994,-1.7999,-1.8025,-1.8032,-1.7955,-1.7955,-1.7955,0,0,-1.768,-1.7696,-1.7713,-1.775,-1.7766,-1.7794,-1.7775,-1.7806,-1.7827,-1.7819,-1.7858,-1.7869,-1.7891,-1.7935,-1.7955,-1.7945,-1.8021,-1.7999,-1.8002,-1.8004,-1.8029,-1.8036,-1.8043,-1.7957,-1.7957,-1.7956,0,0,-1.7727,-1.7742,-1.7775,-1.7792,-1.7815,-1.7823,-1.7831,-1.7854,-1.7861,-1.79,-1.7895,-1.792,-1.7966,-1.7982,-1.7996,-1.8051,-1.8045,-1.8059,-1.8085,-1.811,-1.8116,-1.8122,-1.8141,-1.8148,-1.8063,-1.8063,-1.8063,0,-1.7746,-1.7788,-1.7793,-1.7824,-1.7841,-1.7836,-1.7869,-1.7885,-1.7916,-1.7927,-1.7916,-1.7974,-1.7989,-1.8036,-1.805,-1.8061,-1.8071,-1.8056,-1.8115,-1.8121,-1.8126,-1.8144,-1.8152,-1.8065,-1.8065,-1.8064,-1.8064,0,-1.7811,-1.784,-1.7864,-1.7895,-1.7914,-1.7946,-1.7956,-1.7975,-1.7975,-1.7984,-1.8024,-1.8042,-1.8071,-1.8082,-1.8083,-1.813,-1.8124,-1.8114,-1.8094,-1.8134,-1.8152,-1.8159,-1.8067,-1.8066,-1.8066,-1.8066,0,0,-1.7867,-1.7901,-1.791,-1.7924,-1.795,-1.7973,-1.8005,-1.8035,-1.8051,-1.8072,-1.81,-1.8139,-1.813,-1.8147,-1.8149,-1.8171,-1.8213,-1.8159,-1.8159,-1.8168,-1.8267,-1.8275,-1.8283,-1.821,-1.8212,-1.8213,-1.8265,0,-1.7917,-1.7974,-1.798,-1.8031,-1.8059,-1.8055,-1.8083,-1.8102,-1.8111,-1.8136,-1.8146,-1.8174,-1.8161,-1.8171,-1.8192,-1.8204,-1.8233,-1.82,-1.8236,-1.8237,-1.823,-1.8292,-1.83,-1.8348,-1.8272,-1.8274,-1.8274,0,-1.7982,-1.8006,-1.806,-1.8084,-1.8095,-1.8121,-1.8148,-1.8172,-1.8194,-1.8199,-1.8218,-1.8217,-1.8251,-1.823,-1.8276,-1.8253,-1.8268,-1.8276,-1.8278,-1.8282,-1.8258,-1.8297,-1.8364,-1.8372,-1.8285,-1.8284,-1.8284,0,-1.8018,-1.8064,-1.8103,-1.8115,-1.8143,-1.8161,-1.8174,-1.8194,-1.8212,-1.8236,-1.8247,-1.8274,-1.8289,-1.8311,-1.8318,-1.8302,-1.8364,-1.8343,-1.8369,-1.8369,-1.8382,-1.8381,-1.8453,-1.8392,-1.8392,-1.8392,-1.8392,0,-1.8073,-1.8106,-1.812,-1.8143,-1.8181,-1.8187,-1.8224,-1.8235,-1.8254,-1.828,-1.8278,-1.8302,-1.831,-1.8336,-1.8342,-1.8379,-1.8386,-1.8391,-1.8392,-1.8392,-1.8391,-1.8401,-1.8398,-1.8394,-1.8393,-1.8393,-1.8393,0,-1.8119,-1.813,-1.8172,-1.8195,-1.8202,-1.8228,-1.8248,-1.8271,-1.828,-1.8313,-1.8321,-1.8336,-1.8366,-1.8376,-1.8412,-1.8416,-1.846,-1.8458,-1.8453,-1.8453,-1.8478,-1.8476,-1.8559,-1.857,-1.8502,-1.8502,-1.8503,0,-1.8153,-1.8179,-1.8206,-1.8223,-1.8236,-1.8264,-1.8282,-1.8289,-1.8308,-1.8336,-1.8355,-1.8385,-1.841,-1.8459,-1.8472,-1.85,-1.8499,-1.8526,-1.8503,-1.8502,-1.85,-1.8498,-1.8501,-1.853,-1.8531,-1.8532,-1.8532,0,-1.8213,-1.8217,-1.8243,-1.8271,-1.8293,-1.8315,-1.8337,-1.8351,-1.8362,-1.8383,-1.8414,-1.8433,-1.8471,-1.8501,-1.8529,-1.8542,-1.8539,-1.854,-1.8547,-1.8546,-1.8542,-1.8545,-1.8465,-1.8537,-1.8537,-1.8537,-1.8536,-1.8536,-1.8254,-1.8277,-1.83,-1.8329,-1.8346,-1.8367,-1.839,-1.8402,-1.8428,-1.846,-1.8462,-1.8496,-1.8518,-1.8556,-1.8571,-1.8597,-1.8589,-1.86,-1.8603,-1.8605,-1.8608,-1.8538,-1.8602,-1.8602,-1.8602,-1.8602,-1.8602,0,-1.8314,-1.8328,-1.8355,-1.8386,-1.8409,-1.8405,-1.8429,-1.8448,-1.8478,-1.8499,-1.8523,-1.856,-1.8589,-1.8605,-1.8635,-1.8653,-1.8652,-1.866,-1.8659,-1.8662,-1.8613,-1.8603,-1.866,-1.866,-1.866,-1.866,-1.866,-1.866,-1.8348,-1.8386,-1.8393,-1.844,-1.8455,-1.8488,-1.8502,-1.8521,-1.8538,-1.8578,-1.8603,-1.8614,-1.8633,-1.8664,-1.869,-1.8695,-1.8706,-1.8715,-1.8718,-1.8671,-1.8665,-1.866,-1.8651,-1.8717,-1.8717,-1.8765,-1.8765,-1.8766]}]]